{"data":{"norad_id":53815,"intl_designator":"2022-113A","name":"STRIX-1","alt_names":[],"object_type":"PAYLOAD","status":"ACTIVE","operator":null,"country":"JPN","launch_date":"2022-09-15","launch_site_code":"RLLB","launch_vehicle":null,"mission":null,"orbit_class":"UNKNOWN","rcs_meters":null,"size_class":null,"mass_kg":null,"dimensions":null,"purposes":[],"wikipedia_slug":null,"has_3d_model":false,"image_url":null,"decayed_at":null,"tle_current":{"epoch":"2026-05-25T04:06:37.976832Z","epoch_age_seconds":56434,"freshness":"FRESH","line1":"1 53815U 22113A   26145.17127288  .00021924  00000+0  57567-3 0  9995","line2":"2 53815  97.4511 206.8032 0002316 336.1064  24.0073 15.38640199203903","mean_motion":15.38640199,"eccentricity":0.0002316,"inclination_deg":97.4511,"raan_deg":206.8032,"arg_perigee_deg":336.1064,"mean_anomaly_deg":24.0073,"bstar":0.00057567,"rev_number":20390,"period_min":93.589131554985,"perigee_km":448.54799991137,"apogee_km":451.71085292009,"semimajor_km":6828.2664264157,"source":"CELESTRAK","updated_at":"2026-05-25T13:37:58.406002Z"}}}